Lid_Strength_Index
3 4 5 6 6 6 6 7 7 6 6 6 6 5 4 4 3 3 3 3 2 3
7 7 8 8 9 9 9 9 9 8 8 8 8 7 6 5 6 5 5 5 5 5
9 10 10 11 11 11 12 11 10 10 10 10 10 9 8 8 9 8 8 8 8 7
11 12 12 12 12 12 12 12 12 11 11 11 11 11 10 10 10 10 10 10 10 10
13 13 14 13 13 13 14 13 12 12 13 13 13 12 12 12 11 11 10 10 10 10
14 14 14 14 14 13 14 14 14 14 14 13 13 12 12 12 12 12 11 12 12 11
14 15 15 15 15 15 14 14 14 14 14 14 13 12 12 11 12 12 12 12 12 12
15 15 15 15 16 15 15 15 15 15 15 14 13 12 12 12 12 13 13 12 12 12
16 17 16 16 16 16 16 15 15 15 15 15 13 12 12 12 13 13 13 13 12 12
16 16 17 17 16 16 16 15 15 15 15 15 14 13 13 13 13 13 13 13 13 12
17 17 17 16 16 17 17 16 15 15 15 15 14 13 12 13 12 12 13 13 12 12
17 17 17 16 16 17 16 16 15 15 15 15 15 13 12 12 13 13 13 13 12 12
16 17 17 17 18 17 16 16 16 16 15 15 15 13 13 12 13 13 13 12 12 13
17 18 17 18 17 17 17 16 16 16 16 15 15 14 13 13 13 13 13 13 13 13